Content
SEND FEEDBACK

Daily
Averages
Monthly
Summary
United States of America

LAKEVIEW, OHIO


Home > North America > United States > Ohio
Elevation: 990 feet     Latitude: 40 29N     Longitude: 083 55W

WEATHER
 
SELECT A DAY
Number of Records: 71,361;   Date Range: 5/9/11 - 8/27/14
 
SHARE

PRINT THIS DATA

[ ← Previous Day ]
WEATHER ALMANAC - JANUARY 31, 2013
[ Next Day → ]
[ °C ]   °F
Weather ElementAverageHighLow
Temperature23.5 °F28.4 °F (2:15 pm)17.6 °F (10:35 pm)
Dewpoint15.8 °F21.2 °F (12:55 pm)8.6 °F (11:15 pm)
Humidity72.5 %86 % (12:55 pm)64 % (12:00 pm)
Barometer29.82 in29.90 in (11:35 pm)29.77 in (10:35 am)
Wind Speed18.2 mph25.3 mph (11:15 am)
Wind Gust36.8 mph (11:15 am)
Weather ElementAverage
Visibility8.5 mi
Wind DirectionW (265.9 °)

Weather ElementTotal
Precipitation---
Heating Degree Days42 (Base 65)
Averaged from 39 records on January 31, 2013
WEATHER CONDITIONS BREAKOUT
WIND DIRECTION BREAKOUT
WEATHER BY HOUR - JANUARY 31, 2013
[ °C ]   °F
Local TimeTemperatureDewpointHumidityBarometerVisibilityWind DirectionWind SpeedGust SpeedPrecipitationEventsConditions
10:35 AM23.0 °F14.0 °F68 %29.77 in10.0 miWest (260°)23.0 mph32.2 mph0.00 inMostly Cloudy
10:55 AM23.0 °F14.0 °F68 %29.78 in10.0 miWest (260°)23.0 mph29.9 mph0.00 inMostly Cloudy
11:15 AM23.0 °F14.0 °F68 %29.79 in10.0 miWSW (250°)25.3 mph36.8 mph0.00 inMostly Cloudy
11:35 AM23.0 °F17.6 °F80 %29.79 in5.0 miWest (260°)19.6 mph32.2 mph0.00 inScattered Clouds
12:00 PM24.8 °F14.0 °F64 %29.79 in10.0 miWest (260°)20.7 mph36.8 mph0.00 inMostly Cloudy
12:15 PM24.8 °F15.8 °F69 %29.79 in10.0 miWest (260°)25.3 mph36.8 mph0.00 inMostly Cloudy
12:35 PM24.8 °F17.6 °F74 %29.79 in5.0 miWSW (240°)17.3 mph0.00 inScattered Clouds
12:55 PM24.8 °F21.2 °F86 %29.78 in3.0 miWSW (240°)18.4 mph0.00 inScattered Clouds
1:15 PM26.6 °F19.4 °F74 %29.78 in5.0 miWSW (240°)19.6 mph24.2 mph0.00 inScattered Clouds
1:35 PM26.6 °F21.2 °F80 %29.78 in2.0 miWest (260°)17.3 mph21.9 mph0.00 inScattered Clouds
1:55 PM24.8 °F21.2 °F86 %29.78 in1.8 miWSW (240°)17.3 mph0.00 inScattered Clouds
2:15 PM28.4 °F21.2 °F74 %29.78 in10.0 miWSW (240°)20.7 mph27.6 mph0.00 inScattered Clouds
2:35 PM26.6 °F19.4 °F74 %29.78 in10.0 miWSW (240°)24.2 mph29.9 mph0.00 inMostly Cloudy
2:55 PM26.6 °F17.6 °F69 %29.77 in10.0 miWSW (250°)21.9 mph32.2 mph0.00 inScattered Clouds
3:15 PM26.6 °F19.4 °F74 %29.78 in5.0 miWest (260°)23.0 mph31.1 mph0.00 inPartly Cloudy
3:35 PM26.6 °F19.4 °F74 %29.78 in10.0 miWest (260°)21.9 mph29.9 mph0.00 inScattered Clouds
3:55 PM28.4 °F19.4 °F69 %29.79 in10.0 miWSW (250°)25.3 mph33.4 mph0.00 inMostly Cloudy
4:15 PM26.6 °F19.4 °F74 %29.80 in8.0 miWest (270°)18.4 mph34.5 mph0.00 inMostly Cloudy
4:35 PM26.6 °F17.6 °F69 %29.80 in10.0 miWest (260°)24.2 mph32.2 mph0.00 inMostly Cloudy
4:55 PM26.6 °F15.8 °F64 %29.80 in10.0 miWest (270°)15.0 mph27.6 mph0.00 inMostly Cloudy
5:15 PM24.8 °F14.0 °F64 %29.80 in10.0 miWest (260°)16.1 mph25.3 mph0.00 inMostly Cloudy
5:35 PM24.8 °F15.8 °F69 %29.80 in10.0 miWest (260°)19.6 mph28.8 mph0.00 inMostly Cloudy
5:55 PM24.8 °F14.0 °F64 %29.81 in10.0 miWest (260°)19.6 mph24.2 mph0.00 inMostly Cloudy
6:15 PM24.8 °F15.8 °F69 %29.81 in10.0 miWest (260°)19.6 mph26.5 mph0.00 inOvercast
6:35 PM23.0 °F14.0 °F68 %29.82 in10.0 miWest (270°)13.8 mph0.00 inMostly Cloudy
6:55 PM23.0 °F14.0 °F68 %29.83 in10.0 miWest (270°)13.8 mph23.0 mph0.00 inOvercast
7:15 PM23.0 °F14.0 °F68 %29.84 in10.0 miWest (270°)13.8 mph0.00 inMostly Cloudy
7:35 PM23.0 °F15.8 °F74 %29.84 in10.0 miWNW (290°)13.8 mph0.00 inScattered Clouds
8:15 PM21.2 °F15.8 °F80 %29.85 in10.0 miWest (280°)13.8 mph0.00 inOvercast
8:35 PM21.2 °F14.0 °F74 %29.86 in10.0 miWest (280°)10.4 mph0.00 inOvercast
8:55 PM21.2 °F14.0 °F74 %29.86 in9.0 miWest (280°)17.3 mph23.0 mph0.00 inOvercast
9:15 PM21.2 °F14.0 °F74 %29.86 in10.0 miWNW (290°)13.8 mph21.9 mph0.00 inOvercast
9:35 PM19.4 °F14.0 °F80 %29.87 in3.0 miWNW (290°)12.7 mph20.7 mph0.00 inOvercast
9:55 PM19.4 °F14.0 °F80 %29.86 in8.0 miNW (310°)12.7 mph17.3 mph0.00 inMostly Cloudy
10:15 PM19.4 °F12.2 °F74 %29.88 in10.0 miWNW (290°)15.0 mph21.9 mph0.00 inMostly Cloudy
10:35 PM17.6 °F12.2 °F79 %29.88 in7.0 miWNW (290°)15.0 mph23.0 mph0.00 inOvercast
10:55 PM17.6 °F10.4 °F73 %29.89 in10.0 miWest (280°)16.1 mph0.00 inMostly Cloudy
11:15 PM17.6 °F8.6 °F68 %29.89 in10.0 miWNW (290°)16.1 mph20.7 mph0.00 inOvercast
11:35 PM17.6 °F8.6 °F68 %29.90 in8.0 miWest (280°)16.1 mph0.00 inOvercast
Hourly data recorded from KEDJ, located miles away from Lakeview, Ohio







STORIES FROM OUR PARTNERS